[[{"header":{"parameterUnit":"m.s-1","parameterCategory":1,"la1":30.2991,"la2":30.254,"lo1":-89.0895,"lo2":-89.0444,"dy":0.0017,"dx":0.0017,"nx":28,"ny":28,"refTime":"2024-07-12T21:00:00:Z","depth":0,"parameterNumber":2,"parameterNumberName":"U-component_of_WINDS"},"data":[0,0,0,0,0,0,0,0,0,0,0,0,0,0,0,0,0,0,0,0,0,0,0,0,0,0,0,0,0,0,0,0,0,0,0,0,0,0,0,0,0,0,0,0,0,0,0,0,0,0,0,0,0,0,0,0,0,0,1.1423,1.1424,0,1.1558,1.1559,1.1561,1.1614,1.1614,1.1613,1.1613,1.1752,1.1756,1.176,0,0,0,0,0,0,0,0,0,0,0,0,0,1.1212,1.1215,1.1423,1.1424,1.1426,1.1557,1.1559,1.1561,1.1614,1.1613,1.1613,1.1613,1.1751,1.1755,1.176,0,0,0,0,0,0,0,0,0,0,0,0,0,1.132,1.1216,1.1422,1.1468,1.1474,1.1557,1.1559,1.1561,1.1614,1.1613,1.1613,1.1612,1.1749,1.1755,1.1761,1.1809,0,0,1.1779,1.1782,0,0,0,0,0,0,0,0,1.1314,1.1328,1.146,1.1465,1.1472,1.1568,1.1536,1.1644,1.1614,1.1561,1.1613,1.1612,1.1691,1.1702,1.1729,1.1815,1.1821,1.178,1.1783,1.1786,1.1788,0,0,0,0,0,0,0,1.1307,1.1323,1.1476,1.1462,1.1469,1.1482,1.1497,1.1557,1.1627,1.1565,1.157,1.1585,1.1694,1.1723,1.1732,1.1823,1.178,1.1785,1.1789,1.1791,1.1955,1.1956,0,0,0,0,0,0,1.1291,1.1316,1.1472,1.148,1.139,1.1486,1.1503,1.1538,1.1627,1.164,1.1585,1.1587,1.1712,1.1725,1.1737,1.1799,1.1786,1.1792,1.1795,1.1954,1.1955,1.1956,0,0,0,0,0,0,1.1287,1.1305,1.1466,1.1399,1.1421,1.1491,1.1529,1.1541,1.1569,1.1642,1.1655,1.1601,1.1713,1.1729,1.179,1.1804,1.1794,1.18,1.1954,1.1955,1.1956,1.1922,0,0,0,0,0,0,1.128,1.1303,1.1322,1.1399,1.1424,1.1517,1.153,1.1544,1.1579,1.1583,1.166,1.1672,1.1713,1.1781,1.1796,1.1812,1.1805,1.1953,1.1954,1.1955,1.1922,1.1922,1.1921,0,0,0,0,0,1.1273,1.1307,1.1322,1.1341,1.1449,1.1517,1.1532,1.1578,1.158,1.1599,1.1646,1.167,1.18,1.1787,1.1804,1.1823,1.1952,1.1954,1.1955,1.1922,1.1922,1.1921,0,0,0,0,0,0,1.1229,1.1318,1.1336,1.1396,1.1449,1.1526,1.1552,1.1576,1.163,1.1631,1.1686,1.1703,1.176,1.1798,1.1781,1.1873,1.1878,1.1883,1.1847,1.1847,1.1846,1.1836,1.181,0,0,0,0,0,1.1227,1.1275,1.135,1.1396,1.1421,1.1482,1.1514,1.1545,1.1602,1.1624,1.1675,1.173,1.1783,1.1817,1.187,1.1928,1.1945,1.1949,1.1948,1.1948,1.1952,1.1984,1.1987,1.1961,1.1961,1.1961,0,0,1.1222,1.1277,1.1304,1.1389,1.1433,1.1481,1.1501,1.1551,1.1588,1.1632,1.1693,1.1732,1.1797,1.1856,1.1885,1.1889,1.1963,1.195,1.1949,1.1953,1.1986,1.1989,1.1991,1.1963,1.1962,1.1962,0,0,1.1239,1.1285,1.1328,1.1372,1.1438,1.1479,1.1489,1.1563,1.159,1.1652,1.1686,1.1731,1.1821,1.1866,1.19,1.1932,1.1956,1.1948,1.1946,1.1977,1.1979,1.1981,1.1993,1.1996,1.1952,1.1952,1.1952,0,1.1224,1.1299,1.1347,1.1396,1.1432,1.1474,1.1518,1.1558,1.1639,1.1663,1.1667,1.1781,1.1827,1.1897,1.1905,1.1932,1.1945,1.1939,1.1975,1.1978,1.198,1.1991,1.1996,1.195,1.195,1.195,1.1951,0,1.1278,1.1329,1.1356,1.1432,1.1471,1.1517,1.1573,1.1607,1.1634,1.1674,1.1736,1.1793,1.1858,1.1877,1.1905,1.1951,1.1951,1.1964,1.197,1.198,1.1992,1.1997,1.1948,1.1949,1.1949,1.1949,0,0,1.1271,1.1373,1.1382,1.1417,1.1493,1.1534,1.1581,1.1645,1.1672,1.1727,1.1768,1.1843,1.1855,1.1894,1.1927,1.1955,1.1976,1.1964,1.1967,1.1964,1.203,1.2019,1.2024,1.1992,1.1993,1.1994,1.2024,0,1.1297,1.1384,1.1429,1.1497,1.1544,1.1584,1.1626,1.1677,1.1716,1.1761,1.1804,1.1856,1.1868,1.1892,1.1921,1.1967,1.199,1.1965,1.2031,1.2033,1.2013,1.203,1.2019,1.2045,1.2029,1.203,1.2031,0,1.1339,1.1392,1.1465,1.1535,1.1557,1.1593,1.1655,1.1698,1.1757,1.1783,1.1825,1.1858,1.191,1.1911,1.1983,1.1966,1.1995,1.2022,1.2024,1.2032,1.2032,1.2038,1.2055,1.2059,1.2038,1.2038,1.2037,0,1.1326,1.1416,1.1471,1.15,1.1583,1.1608,1.1644,1.1702,1.1737,1.1791,1.1814,1.1873,1.1905,1.195,1.1997,1.1994,1.2064,1.207,1.2087,1.2086,1.21,1.2099,1.2122,1.2119,1.2119,1.2119,1.2119,0,1.1351,1.1393,1.1466,1.15,1.1549,1.16,1.1647,1.1686,1.1737,1.1779,1.1818,1.1856,1.1916,1.1963,1.2,1.2054,1.2068,1.209,1.21,1.2087,1.2084,1.2107,1.2106,1.212,1.212,1.212,1.212,0,1.1344,1.1395,1.1457,1.1531,1.1551,1.1583,1.1647,1.1681,1.1721,1.1773,1.1789,1.1851,1.1908,1.1959,1.2034,1.2059,1.2113,1.2125,1.2093,1.2098,1.2112,1.211,1.2151,1.2159,1.2151,1.2151,1.2151,0,1.1356,1.139,1.1467,1.1498,1.1533,1.1582,1.1618,1.1669,1.1705,1.1774,1.18,1.1859,1.1909,1.1997,1.2049,1.2106,1.212,1.213,1.2129,1.2115,1.212,1.2117,1.2121,1.213,1.2129,1.2129,1.2129,0,1.1372,1.1395,1.1445,1.1504,1.1545,1.1594,1.1644,1.1667,1.1727,1.1765,1.1823,1.1862,1.1938,1.1996,1.2059,1.2096,1.2123,1.2129,1.2136,1.2123,1.2103,1.2114,1.2091,1.2128,1.2128,1.2128,1.2128,1.2128,1.1376,1.1407,1.1466,1.1521,1.1563,1.1609,1.1644,1.1689,1.1738,1.1803,1.1831,1.1889,1.1947,1.2034,1.2071,1.2118,1.2123,1.2133,1.2136,1.2138,1.2135,1.2096,1.2129,1.213,1.213,1.213,1.213,0,1.1393,1.1433,1.1482,1.1551,1.1593,1.1614,1.167,1.1704,1.1755,1.1807,1.1855,1.1921,1.1977,1.2033,1.2093,1.2119,1.2133,1.2133,1.2131,1.214,1.2127,1.2115,1.2121,1.2121,1.2121,1.2121,1.2121,1.2121,1.1407,1.1462,1.1492,1.1568,1.1608,1.1665,1.1695,1.1737,1.1779,1.1851,1.1897,1.1934,1.1987,1.2051,1.2103,1.2118,1.2138,1.2135,1.2153,1.214,1.214,1.2141,1.213,1.2139,1.2139,1.2162,1.2162,1.2163]},{"header":{"parameterUnit":"m.s-1","parameterCategory":1,"la1":30.2991,"la2":30.254,"lo1":-89.0895,"lo2":-89.0444,"dy":0.0017,"dx":0.0017,"nx":28,"ny":28,"refTime":"2024-07-12T21:00:00:Z","depth":0,"parameterNumber":3,"parameterNumberName":"V-component_of_WINDS"},"data":[0,0,0,0,0,0,0,0,0,0,0,0,0,0,0,0,0,0,0,0,0,0,0,0,0,0,0,0,0,0,0,0,0,0,0,0,0,0,0,0,0,0,0,0,0,0,0,0,0,0,0,0,0,0,0,0,0,0,3.522,3.522,0,3.5167,3.5167,3.5166,3.5125,3.5124,3.5124,3.5123,3.5064,3.5062,3.5061,0,0,0,0,0,0,0,0,0,0,0,0,0,3.528,3.528,3.522,3.522,3.5219,3.5168,3.5167,3.5166,3.5125,3.5124,3.5124,3.5123,3.5064,3.5063,3.5061,0,0,0,0,0,0,0,0,0,0,0,0,0,3.5244,3.5279,3.522,3.5192,3.5189,3.5168,3.5167,3.5166,3.5125,3.5124,3.5124,3.5123,3.5065,3.5063,3.5061,3.5061,0,0,3.5055,3.5054,0,0,0,0,0,0,0,0,3.5246,3.5241,3.5197,3.5194,3.5191,3.5152,3.5166,3.5131,3.5125,3.5149,3.5123,3.5123,3.5093,3.5089,3.508,3.5059,3.5056,3.5055,3.5054,3.5053,3.5053,0,0,0,0,0,0,0,3.5248,3.5243,3.5199,3.5196,3.5193,3.5181,3.5175,3.5159,3.5125,3.5147,3.5144,3.5138,3.5091,3.5082,3.5078,3.5055,3.5055,3.5054,3.5052,3.5052,3.503,3.5031,0,0,0,0,0,0,3.5256,3.5246,3.5201,3.5198,3.5218,3.518,3.5173,3.5165,3.5125,3.5118,3.5139,3.5137,3.5085,3.5081,3.5076,3.5074,3.5053,3.5052,3.505,3.503,3.503,3.5031,0,0,0,0,0,0,3.5257,3.5252,3.5203,3.5221,3.5214,3.518,3.5171,3.5164,3.5155,3.5119,3.5112,3.5136,3.5085,3.5079,3.5066,3.5071,3.5051,3.5049,3.5029,3.503,3.5031,3.5069,0,0,0,0,0,0,3.5259,3.5253,3.5254,3.5221,3.5213,3.5195,3.5171,3.5164,3.5153,3.5149,3.5115,3.5108,3.5084,3.5069,3.5064,3.5068,3.5048,3.5028,3.5029,3.503,3.5067,3.5071,3.5074,0,0,0,0,0,3.5262,3.5266,3.5254,3.5249,3.5214,3.5196,3.5191,3.5164,3.5153,3.5153,3.513,3.5109,3.5071,3.5068,3.5062,3.5066,3.5028,3.5029,3.503,3.5065,3.507,3.5074,0,0,0,0,0,0,3.5298,3.5261,3.5248,3.5242,3.5223,3.5189,3.5188,3.517,3.5152,3.5149,3.5115,3.5108,3.5098,3.508,3.5077,3.5064,3.5047,3.5047,3.5076,3.508,3.5083,3.5088,3.5046,0,0,0,0,0,3.5306,3.5296,3.5263,3.5261,3.5252,3.5222,3.5213,3.5195,3.5172,3.5163,3.5139,3.5116,3.5099,3.5088,3.5071,3.5065,3.5056,3.5064,3.5068,3.5071,3.5071,3.5066,3.5069,3.5035,3.5035,3.5035,0,0,3.5321,3.53,3.5295,3.5268,3.5251,3.524,3.5215,3.5204,3.5195,3.5161,3.5147,3.5129,3.5101,3.5092,3.5086,3.5077,3.5079,3.5073,3.5075,3.5074,3.5068,3.5071,3.5074,3.5036,3.5036,3.5035,0,0,3.5343,3.5327,3.5323,3.5307,3.5281,3.5261,3.5261,3.5229,3.5216,3.5203,3.5177,3.5164,3.5136,3.5117,3.5104,3.512,3.51,3.5115,3.5134,3.5129,3.5132,3.5134,3.5139,3.5141,3.5115,3.5115,3.5115,0,3.5365,3.5349,3.5323,3.5314,3.5303,3.5273,3.5268,3.5253,3.5222,3.5214,3.5205,3.5168,3.5148,3.5133,3.5137,3.5128,3.5124,3.5118,3.5134,3.5136,3.5137,3.5142,3.5144,3.5117,3.5117,3.5117,3.5117,0,3.5377,3.5366,3.5366,3.5339,3.5328,3.5321,3.5292,3.5283,3.5266,3.5246,3.5232,3.5206,3.5183,3.5178,3.516,3.5161,3.5156,3.514,3.5123,3.5143,3.5146,3.5148,3.512,3.512,3.5119,3.5118,0,0,3.542,3.538,3.538,3.5368,3.5338,3.5328,3.5319,3.5299,3.5291,3.5271,3.5262,3.5239,3.5225,3.521,3.5189,3.5186,3.5199,3.517,3.5169,3.5176,3.5197,3.5209,3.5211,3.5186,3.5186,3.5186,3.5199,0,3.5437,3.5422,3.5398,3.539,3.5379,3.5351,3.5343,3.5323,3.5304,3.5291,3.5269,3.5254,3.5237,3.5227,3.5222,3.5199,3.5203,3.5197,3.5175,3.5175,3.5183,3.5213,3.5225,3.5239,3.52,3.5201,3.5201,0,3.5455,3.5438,3.543,3.5401,3.5396,3.5389,3.5368,3.5356,3.5332,3.5319,3.5303,3.5281,3.5269,3.5254,3.5235,3.5232,3.5222,3.5209,3.5209,3.5205,3.5189,3.521,3.5243,3.5245,3.5203,3.5203,3.5202,0,3.5487,3.5462,3.5454,3.5444,3.5411,3.5407,3.5392,3.5368,3.5357,3.5338,3.533,3.5309,3.5297,3.5281,3.5253,3.5245,3.5237,3.522,3.5225,3.5225,3.5224,3.5224,3.5255,3.5218,3.5218,3.5218,3.5218,0,3.5508,3.5503,3.5468,3.5463,3.5457,3.5429,3.5423,3.5406,3.5385,3.5374,3.5348,3.5338,3.5303,3.5289,3.5267,3.5255,3.5249,3.5237,3.5231,3.5239,3.5241,3.5232,3.523,3.5219,3.5218,3.5218,3.5218,0,3.5542,3.5518,3.5508,3.5477,3.5469,3.5466,3.5439,3.5432,3.5413,3.54,3.5395,3.5363,3.5345,3.5317,3.529,3.5275,3.5266,3.5257,3.5275,3.5271,3.5278,3.5277,3.5303,3.5305,3.5268,3.5268,3.5268,0,3.5557,3.5554,3.5523,3.5516,3.5503,3.549,3.5479,3.5452,3.5441,3.5414,3.541,3.539,3.5373,3.5345,3.5318,3.5297,3.5287,3.5297,3.5283,3.5292,3.5286,3.5287,3.5286,3.5301,3.5301,3.5302,3.5302,0,3.5586,3.5575,3.5561,3.5544,3.5532,3.5516,3.5499,3.5493,3.5461,3.545,3.5433,3.542,3.5393,3.5373,3.5349,3.5331,3.5311,3.5307,3.5307,3.5315,3.5325,3.5319,3.5284,3.5306,3.5306,3.5305,3.5305,3.5305,3.5611,3.5606,3.5585,3.557,3.5555,3.554,3.5532,3.5512,3.5497,3.5475,3.5459,3.5442,3.5417,3.5383,3.5367,3.5352,3.5343,3.5343,3.5343,3.5343,3.5346,3.5328,3.5347,3.5347,3.5347,3.5347,3.5347,0,3.5638,3.5623,3.561,3.5588,3.5577,3.5561,3.5541,3.5531,3.5518,3.5498,3.5482,3.5461,3.5442,3.5415,3.5393,3.5386,3.5376,3.5382,3.5381,3.5378,3.5355,3.5358,3.539,3.539,3.539,3.539,3.539,3.539,3.5651,3.5643,3.5629,3.5612,3.5596,3.5582,3.5572,3.5557,3.5541,3.552,3.5505,3.5488,3.5464,3.544,3.5422,3.5414,3.5406,3.5415,3.5404,3.5383,3.5379,3.5375,3.5377,3.5414,3.5414,3.5427,3.5427,3.5428]}]]